Estherville, IA

3:22 AM CDT on May 23, 2018 (GMT -0500)
Estherville Municipal

Weather History for KEST - May, 2013

Change the Weather History Date:

Monday, May 6, 2013

  Actual Average Record
Temperature  
Mean Temperature 57 °F 55 °F  
Max Temperature 69 °F 67 °F 88 °F (2016)
Min Temperature 44 °F 43 °F 28 °F (1967)
Degree Days  
Heating Degree Days 8 10  
Month to date heating degree days 133 67  
Since 1 July heating degree days 7705 7528  
Cooling Degree Days 0 0  
Month to date cooling degree days 0 0  
Year to date cooling degree days 0 2  
Growing Degree Days 5 (Base 50)    
Moisture  
Dew Point 46 °F    
Average Humidity 71    
Maximum Humidity 92    
Minimum Humidity 49    
Precipitation  
Precipitation 0.00 in 0.12 in 1.75 in (1959)
Month to date precipitation 0.80 0.68  
Sea Level Pressure  
Sea Level Pressure 30.10 in    
Wind  
Wind Speed 6 mph (NW)    
Max Wind Speed 12 mph    
Max Gust Speed 17 mph    
Visibility 9 miles    
Events      
T = Trace of Precipitation, MM = Missing Value Source: NWS Daily Summary

Daily Weather History Graph

Daily Weather History Graph

Search for Another Location

Airport or City:

Astronomy

May. 06, 2013 Rise Set
Actual Time 6:04 AM CDT 8:27 PM CDT
Civil Twilight 5:32 AM CDT 8:59 PM CDT
Nautical Twilight 4:53 AM CDT 9:38 PM CDT
Astronomical Twilight 4:09 AM CDT 10:23 PM CDT
Moon 4:12 AM CDT (5/6) 5:23 PM CDT (5/6)
Length of Visible Light 15h 26m
Length of Day
14h 22m
Waning Crescent, 11% of the Moon is Illuminated
May 6
Waning Crescent
May 9
New
May 17
First Quarter
May 24
Full
May 31
Last Quarter

Hourly Weather History & Observations

Time (CDT) Temp. Windchill Dew Point Humidity Pressure Visibility Wind Dir Wind Speed Gust Speed Precip Events Conditions
12:52 AM 45.0 °F 41.2 °F 43.0 °F 93% 30.12 in 8.0 mi NNW 6.9 mph - N/A   Mostly Cloudy
1:52 AM 46.0 °F 41.9 °F 43.0 °F 89% 30.12 in 8.0 mi NW 8.1 mph - N/A   Overcast
2:52 AM 45.0 °F 40.6 °F 43.0 °F 93% 30.12 in 7.0 mi NNW 8.1 mph - N/A   Overcast
3:52 AM 45.0 °F 40.1 °F 42.1 °F 90% 30.12 in 9.0 mi NNW 9.2 mph - N/A   Mostly Cloudy
4:52 AM 44.1 °F 39.5 °F 41.0 °F 89% 30.12 in 10.0 mi NNW 8.1 mph - N/A   Overcast
5:01 AM 44.6 °F 39.7 °F 41.0 °F 87% 30.11 in 10.0 mi NNW 9.2 mph - N/A   Overcast
5:18 AM 44.6 °F 40.2 °F 41.0 °F 87% 30.11 in 10.0 mi NNW 8.1 mph - N/A   Overcast
5:52 AM 45.0 °F 40.6 °F 41.0 °F 86% 30.13 in 10.0 mi NNW 8.1 mph - N/A   Overcast
6:26 AM 44.6 °F 40.2 °F 41.0 °F 87% 30.12 in 9.0 mi NNW 8.1 mph - N/A   Overcast
6:41 AM 44.6 °F 40.2 °F 41.0 °F 87% 30.12 in 8.0 mi NNW 8.1 mph - N/A   Overcast
6:52 AM 45.0 °F 41.2 °F 41.0 °F 86% 30.14 in 8.0 mi North 6.9 mph - N/A   Overcast
7:52 AM 46.9 °F - 43.0 °F 86% 30.14 in 9.0 mi North 9.2 mph - N/A   Overcast
8:52 AM 50.0 °F - 44.1 °F 80% 30.14 in 10.0 mi NNW 10.4 mph - N/A   Mostly Cloudy
9:52 AM 55.0 °F - 46.9 °F 74% 30.14 in 10.0 mi North 5.8 mph - N/A   Partly Cloudy
10:52 AM 59.0 °F - 48.9 °F 69% 30.13 in 10.0 mi Variable 5.8 mph - N/A   Overcast
11:52 AM 61.0 °F - 50.0 °F 67% 30.12 in 10.0 mi North 4.6 mph - N/A   Clear
12:52 PM 62.1 °F - 48.9 °F 62% 30.12 in 10.0 mi Variable 3.5 mph - N/A   Partly Cloudy
1:10 PM 62.6 °F - 50.0 °F 63% 30.10 in 10.0 mi Variable 4.6 mph - N/A   Mostly Cloudy
1:47 PM 62.6 °F - 48.2 °F 59% 30.10 in 10.0 mi Variable 3.5 mph - N/A   Scattered Clouds
1:52 PM 64.0 °F - 50.0 °F 60% 30.10 in 10.0 mi NW 4.6 mph - N/A   Mostly Cloudy
2:52 PM 64.9 °F - 50.0 °F 58% 30.09 in 10.0 mi West 8.1 mph - N/A   Mostly Cloudy
3:52 PM 64.9 °F - 48.9 °F 56% 30.07 in 10.0 mi WNW 6.9 mph - N/A   Mostly Cloudy
5:52 PM 66.9 °F - 48.0 °F 51% 30.05 in 10.0 mi West 8.1 mph - N/A   Mostly Cloudy
6:52 PM 66.0 °F - 48.0 °F 52% 30.04 in 10.0 mi West 4.6 mph - N/A   Clear
7:52 PM 64.9 °F - 48.9 °F 56% 30.04 in 10.0 mi NW 5.8 mph - N/A   Clear
8:52 PM 59.0 °F - 48.9 °F 69% 30.04 in 10.0 mi NW 4.6 mph - N/A   Clear
9:52 PM 55.9 °F - 48.0 °F 75% 30.06 in 10.0 mi WNW 4.6 mph - N/A   Clear
10:52 PM 53.1 °F - 46.9 °F 80% 30.07 in 9.0 mi WNW 4.6 mph - N/A   Clear
11:52 PM 51.1 °F - 45.0 °F 80% 30.07 in 9.0 mi WNW 3.5 mph - N/A   Clear